| time (UTC) | temp C | wind direction | speed KPH | gust KPH | rain 1hr cm | rain 24hr cm | rain mn cm | humidity % | barometer mb |
| 20260503054610 | 13 | 270 | 0.0 | 1.6 | 0.00 | 0.00 | 0.00 | 25 | 846.7 |
| 20260503053110 | 14 | 270 | 0.0 | 0.0 | 0.00 | 0.00 | 0.00 | 25 | 846.6 |
| 20260503051609 | 15 | 270 | 0.0 | 1.6 | 0.00 | 0.00 | 0.00 | 24 | 846.6 |
| 20260503050109 | 16 | 270 | 1.6 | 1.6 | 0.00 | 0.00 | 0.00 | 24 | 846.6 |
| 20260503044608 | 16 | 270 | 0.0 | 0.0 | 0.00 | 0.00 | 0.00 | 24 | 846.5 |
| 20260503043108 | 17 | 270 | 4.8 | 4.8 | 0.00 | 0.00 | 0.00 | 24 | 846.6 |
| 20260503041607 | 18 | 270 | 4.8 | 4.8 | 0.00 | 0.00 | 0.00 | 23 | 846.7 |
| 20260503040107 | 18 | 270 | 1.6 | 1.6 | 0.00 | 0.00 | 0.00 | 22 | 846.6 |
| 20260503034606 | 20 | 270 | 0.0 | 1.6 | 0.00 | 0.00 | 0.00 | 23 | 846.3 |
| 20260503033106 | 21 | 270 | 0.0 | 0.0 | 0.00 | 0.00 | 0.00 | 23 | 846.2 |
| 20260503031605 | 22 | 270 | 1.6 | 6.4 | 0.00 | 0.00 | 0.00 | 22 | 846.0 |
| 20260503030104 | 23 | 270 | 1.6 | 9.7 | 0.00 | 0.00 | 0.00 | 22 | 846.0 |
| 20260503024604 | 24 | 270 | 1.6 | 4.8 | 0.00 | 0.00 | 0.00 | 22 | 845.8 |
| 20260503023103 | 25 | 270 | 1.6 | 8.0 | 0.00 | 0.00 | 0.00 | 21 | 845.6 |
| 20260503021603 | 27 | 270 | 0.0 | 1.6 | 0.00 | 0.00 | 0.00 | 21 | 845.5 |
| 20260503014602 | 30 | 270 | 0.0 | 3.2 | 0.00 | 0.00 | 0.00 | 21 | 844.9 |
| 20260503013101 | 31 | 270 | 1.6 | 4.8 | 0.00 | 0.00 | 0.00 | 21 | 844.6 |
| 20260503011601 | 32 | 270 | 3.2 | 8.0 | 0.00 | 0.00 | 0.00 | 21 | 844.6 |
| 20260503004600 | 33 | 270 | 4.8 | 14.5 | 0.00 | 0.00 | 0.00 | 21 | 844.4 |
| 20260503003059 | 33 | 270 | 6.4 | 6.4 | 0.00 | 0.00 | 0.00 | 21 | 844.3 |
| 20260503001559 | 34 | 270 | 6.4 | 8.0 | 0.00 | 0.00 | 0.00 | 21 | 844.4 |
| 20260503000058 | 35 | 270 | 9.7 | 9.7 | 0.00 | 0.00 | 0.00 | 21 | 844.5 |
| 20260502234558 | 36 | 270 | 1.6 | 11.3 | 0.00 | 0.00 | 0.00 | 21 | 844.6 |
| 20260502233057 | 36 | 270 | 0.0 | 11.3 | 0.00 | 0.00 | 0.00 | 21 | 844.6 |
| 20260502231557 | 37 | 270 | 3.2 | 9.7 | 0.00 | 0.00 | 0.00 | 21 | 844.8 |
| 20260502230056 | 38 | 270 | 1.6 | 8.0 | 0.00 | 0.00 | 0.00 | 21 | 845.0 |
| 20260502224556 | 38 | 270 | 3.2 | 12.9 | 0.00 | 0.00 | 0.00 | 22 | 844.9 |
| 20260502223055 | 38 | 270 | 4.8 | 16.1 | 0.00 | 0.00 | 0.00 | 22 | 845.1 |
| 20260502221555 | 38 | 270 | 3.2 | 8.0 | 0.00 | 0.00 | 0.00 | 22 | 845.3 |
| 20260502220055 | 38 | 270 | 4.8 | 6.4 | 0.00 | 0.00 | 0.00 | 23 | 845.5 |
| 20260502214556 | 38 | 270 | 4.8 | 6.4 | 0.00 | 0.00 | 0.00 | 23 | 845.6 |
| 20260502213053 | 38 | 270 | 4.8 | 6.4 | 0.00 | 0.00 | 0.00 | 22 | 845.9 |
| 20260502211553 | 38 | 270 | 4.8 | 8.0 | 0.00 | 0.00 | 0.00 | 23 | 846.0 |
| 20260502210052 | 38 | 270 | 9.7 | 9.7 | 0.00 | 0.00 | 0.00 | 24 | 846.0 |
| 20260502204554 | 37 | 270 | 3.2 | 11.3 | 0.00 | 0.00 | 0.00 | 24 | 846.1 |
| 20260502203051 | 36 | 270 | 6.4 | 11.3 | 0.00 | 0.00 | 0.00 | 25 | 846.3 |
| 20260502201550 | 35 | 270 | 3.2 | 9.7 | 0.00 | 0.00 | 0.00 | 25 | 846.3 |
| 20260502200050 | 34 | 270 | 8.0 | 11.3 | 0.00 | 0.00 | 0.00 | 25 | 846.6 |
| 20260502194552 | 33 | 270 | 4.8 | 6.4 | 0.00 | 0.00 | 0.00 | 25 | 846.7 |
| 20260502193049 | 32 | 270 | 3.2 | 12.9 | 0.00 | 0.00 | 0.00 | 26 | 846.8 |
| 20260502191549 | 31 | 270 | 4.8 | 9.7 | 0.00 | 0.00 | 0.00 | 26 | 847.1 |
| 20260502190048 | 31 | 270 | 6.4 | 9.7 | 0.00 | 0.00 | 0.00 | 27 | 847.2 |
| 20260502184552 | 30 | 270 | 4.8 | 12.9 | 0.00 | 0.00 | 0.00 | 27 | 847.4 |
| 20260502183047 | 28 | 270 | 9.7 | 11.3 | 0.00 | 0.00 | 0.00 | 28 | 847.6 |
| 20260502181546 | 27 | 270 | 9.7 | 16.1 | 0.00 | 0.00 | 0.00 | 29 | 847.8 |
| 20260502163043 | 18 | 270 | 9.7 | 17.7 | 0.00 | 0.00 | 0.00 | 34 | 848.4 |
| 20260502161542 | 17 | 270 | 9.7 | 14.5 | 0.00 | 0.00 | 0.00 | 34 | 848.6 |
| 20260502151540 | 12 | 270 | 4.8 | 9.7 | 0.00 | 0.00 | 0.00 | 38 | 849.1 |
| 20260502123034 | 3 | 270 | 0.0 | 1.6 | 0.00 | 0.00 | 0.00 | 29 | 849.6 |
| 20260502121534 | 3 | 270 | 0.0 | 1.6 | 0.00 | 0.00 | 0.00 | 28 | 849.6 |
| 20260502114533 | 3 | 270 | 0.0 | 1.6 | 0.00 | 0.00 | 0.00 | 28 | 849.5 |
| 20260502113032 | 3 | 270 | 0.0 | 0.0 | 0.00 | 0.00 | 0.00 | 29 | 849.6 |
| 20260502111532 | 3 | 270 | 0.0 | 3.2 | 0.00 | 0.00 | 0.00 | 29 | 849.5 |
| 20260502110033 | 3 | 270 | 0.0 | 1.6 | 0.00 | 0.00 | 0.00 | 28 | 849.4 |
| 20260502104533 | 3 | 270 | 3.2 | 8.0 | 0.00 | 0.00 | 0.00 | 28 | 849.3 |
| 20260502103030 | 4 | 270 | 0.0 | 3.2 | 0.00 | 0.00 | 0.00 | 28 | 849.4 |
| 20260502070025 | 8 | 270 | 4.8 | 6.4 | 0.00 | 0.00 | 0.00 | 27 | 849.6 |